Anniston, AL

10:55 AM CST on November 21, 2019 (GMT -0600)
Anniston Metro

Weather History for KANB - October, 2019

Change the Weather History Date:

Monday, October 21, 2019

  Actual Average Record
Temperature  
Mean Temperature 66 °F 61 °F  
Max Temperature 76 °F 73 °F 90 °F (1953)
Min Temperature 55 °F 49 °F 29 °F (1952)
Degree Days  
Heating Degree Days 0    
Month to date heating degree days 42  
Since 1 July heating degree days 42  
Growing Degree Days 15 (Base 50)    
Moisture  
Dew Point 60 °F    
Average Humidity 80    
Maximum Humidity 100    
Minimum Humidity 60    
Precipitation  
Precipitation 0.05 in 0.11 in 1.83 in (1984)
Month to date precipitation 1.86 2.06  
Year to date precipitation 41.59 39.91  
Sea Level Pressure  
Sea Level Pressure 29.93 in    
Wind  
Wind Speed 4 mph (East)    
Max Wind Speed 13 mph    
Max Gust Speed 18 mph    
Visibility 8 miles    
Events Fog , Rain    
T = Trace of Precipitation, MM = Missing Value Source: NWS Daily Summary

Daily Weather History Graph

Daily Weather History Graph

Search for Another Location

Airport or City:

Astronomy

Oct. 21, 2019 Rise Set
Actual Time 6:52 AM CDT 6:02 PM CDT
Civil Twilight 6:27 AM CDT 6:28 PM CDT
Nautical Twilight 5:58 AM CDT 6:57 PM CDT
Astronomical Twilight 5:29 AM CDT 7:25 PM CDT
Moon No Moon Rise 2:00 PM CDT
Length of Visible Light 12h 00m
Length of Day
11h 10m
Waning Gibbous, 48% of the Moon is Illuminated
Oct 21
Waning Gibbous
Oct 27
New
Nov 4
First Quarter
Nov 12
Full
Nov 19
Last Quarter

Hourly Weather History & Observations

Time (CDT) Temp. Dew Point Humidity Pressure Visibility Wind Dir Wind Speed Gust Speed Precip Events Conditions
12:19 AM 57.0 °F 55.9 °F 96% 29.97 in 2.5 mi Calm Calm - N/A   Scattered Clouds
12:23 AM 57.0 °F 55.9 °F 96% 29.97 in 1.0 mi Calm Calm - N/A   Mist
12:30 AM 57.0 °F 55.9 °F 96% 29.97 in 0.8 mi Calm Calm - N/A   Mostly Cloudy
12:45 AM 57.0 °F 55.9 °F 96% 29.97 in 0.5 mi Calm Calm - N/A Fog Fog
12:53 AM 57.0 °F 55.9 °F 96% 29.96 in 0.5 mi Calm Calm - N/A Fog Fog
1:07 AM 55.9 °F 55.9 °F 100% 29.96 in 1.0 mi Calm Calm - N/A   Mist
1:12 AM 55.9 °F 55.9 °F 100% 29.96 in 3.0 mi Calm Calm - N/A   Mostly Cloudy
1:23 AM 55.9 °F 55.9 °F 100% 29.96 in 7.0 mi Calm Calm - N/A   Scattered Clouds
1:53 AM 55.9 °F 54.0 °F 93% 29.95 in 9.0 mi Calm Calm - N/A   Clear
2:40 AM 55.9 °F 55.0 °F 97% 29.94 in 8.0 mi Calm Calm - N/A   Scattered Clouds
2:46 AM 55.9 °F 55.0 °F 97% 29.94 in 9.0 mi ENE 3.5 mph - N/A   Mostly Cloudy
2:53 AM 55.9 °F 55.9 °F 100% 29.94 in 10.0 mi Calm Calm - N/A   Mostly Cloudy
3:05 AM 57.0 °F 55.9 °F 96% 29.94 in 10.0 mi Calm Calm - N/A   Overcast
3:38 AM 57.0 °F 57.0 °F 100% 29.93 in 7.0 mi ENE 3.5 mph - N/A   Overcast
3:49 AM 57.2 °F 57.2 °F 100% 29.93 in 2.5 mi NE 4.6 mph - N/A   Overcast
3:53 AM 57.9 °F 57.0 °F 97% 29.93 in 1.2 mi NE 3.5 mph - N/A   Overcast
4:53 AM 57.9 °F 57.9 °F 100% 29.92 in 1.8 mi Calm Calm - N/A   Overcast
4:56 AM 59.0 °F 57.9 °F 96% 29.93 in 3.0 mi NE 3.5 mph - N/A   Overcast
5:30 AM 57.9 °F 57.0 °F 97% 29.94 in 10.0 mi ENE 3.5 mph - N/A   Mostly Cloudy
5:53 AM 57.9 °F 57.0 °F 97% 29.94 in 10.0 mi ENE 3.5 mph - N/A   Scattered Clouds
6:53 AM 57.9 °F 57.0 °F 97% 29.96 in 10.0 mi ESE 3.5 mph - N/A   Clear
7:53 AM 60.1 °F 57.9 °F 93% 29.94 in 10.0 mi NNE 6.9 mph - N/A   Clear
8:53 AM 64.0 °F 62.1 °F 93% 29.96 in 10.0 mi NE 4.6 mph - N/A   Clear
9:53 AM 66.9 °F 63.0 °F 87% 29.94 in 10.0 mi East 8.1 mph - N/A   Clear
10:53 AM 73.9 °F 63.0 °F 68% 29.94 in 10.0 mi Variable 5.8 mph - N/A   Clear
11:53 AM 75.0 °F 61.0 °F 62% 29.96 in 10.0 mi South 9.2 mph - N/A   Clear
12:53 PM 75.0 °F 62.1 °F 64% 29.94 in 10.0 mi South 8.1 mph - N/A   Mostly Cloudy
1:36 PM 73.9 °F 63.0 °F 68% 29.94 in 10.0 mi SSW 5.8 mph - N/A   Overcast
1:53 PM 75.0 °F 64.0 °F 69% 29.93 in 10.0 mi WSW 5.8 mph - N/A   Overcast
2:46 PM 75.0 °F 66.0 °F 73% 29.93 in 10.0 mi Calm Calm - N/A   Mostly Cloudy
2:53 PM 75.0 °F 66.0 °F 73% 29.92 in 10.0 mi South 4.6 mph - N/A   Mostly Cloudy
3:53 PM 73.0 °F 66.9 °F 81% 29.91 in 10.0 mi Calm Calm - 0.00 in   Overcast
4:09 PM 73.0 °F 66.9 °F 81% 29.92 in 10.0 mi South 3.5 mph - N/A   Scattered Clouds
4:36 PM 73.0 °F 66.9 °F 81% 29.91 in 10.0 mi Calm Calm - N/A   Mostly Cloudy
4:44 PM 73.0 °F 66.9 °F 81% 29.91 in 10.0 mi Variable 3.5 mph - N/A   Mostly Cloudy
4:53 PM 73.0 °F 66.0 °F 79% 29.90 in 10.0 mi Variable 3.5 mph - N/A   Mostly Cloudy
5:53 PM 66.9 °F 63.0 °F 87% 29.92 in 8.0 mi West 11.5 mph - 0.01 in Rain Light Rain
6:00 PM 66.0 °F 63.0 °F 90% 29.94 in 8.0 mi SW 9.2 mph - 0.01 in Rain Light Rain
6:12 PM 66.0 °F 63.0 °F 90% 29.93 in 6.0 mi West 4.6 mph - 0.02 in Rain Light Rain
6:53 PM 64.9 °F 63.0 °F 93% 29.93 in 10.0 mi North 4.6 mph - 0.03 in Rain Light Rain
7:53 PM 66.0 °F 64.9 °F 96% 29.88 in 10.0 mi East 6.9 mph - 0.01 in   Scattered Clouds
8:53 PM 68.0 °F 66.0 °F 93% 29.88 in 10.0 mi Calm Calm - 0.00 in   Clear
9:53 PM 71.1 °F 64.9 °F 81% 29.88 in 10.0 mi Calm Calm - N/A   Partly Cloudy
10:53 PM 70.0 °F 64.9 °F 84% 29.88 in 10.0 mi NE 5.8 mph - N/A   Mostly Cloudy
11:53 PM 70.0 °F 64.9 °F 84% 29.85 in 10.0 mi ENE 8.1 mph - N/A   Overcast